Time,TemperatureF,DewpointF,PressureIn,WindDirection,WindDirectionDegrees,WindSpeedMPH,WindSpeedGustMPH,Humidity,HourlyPrecipIn,Conditions,Clouds,dailyrainin,SoftwareType,DateUTC
2013-07-06 00:03:00,57.0,52.2,29.50,South,180,3.7,-999.0,84,-99.99,,,0.00,Acu-Link.com,2013-07-06 07:03:00,
2013-07-06 00:18:00,56.8,52.0,29.50,WNW,292,5.3,-999.0,84,-99.99,,,0.00,Acu-Link.com,2013-07-06 07:18:00,
2013-07-06 00:33:00,56.5,52.0,29.49,SW,225,6.3,-999.0,85,-99.99,,,0.00,Acu-Link.com,2013-07-06 07:33:00,
2013-07-06 00:48:00,56.3,51.8,29.50,SSW,202,2.2,-999.0,85,-99.99,,,0.00,Acu-Link.com,2013-07-06 07:48:00,
2013-07-06 01:04:00,56.1,51.7,29.50,South,180,4.2,-999.0,85,-99.99,,,0.00,Acu-Link.com,2013-07-06 08:04:00,
2013-07-06 01:19:00,56.1,52.0,29.50,NNW,337,1.7,-999.0,86,-99.99,,,0.00,Acu-Link.com,2013-07-06 08:19:00,
2013-07-06 01:34:00,55.9,51.8,29.50,NNW,337,3.2,-999.0,86,-99.99,,,0.00,Acu-Link.com,2013-07-06 08:34:00,
2013-07-06 01:49:00,55.9,51.8,29.50,ESE,112,3.7,-999.0,86,-99.99,,,0.00,Acu-Link.com,2013-07-06 08:49:00,
2013-07-06 02:04:00,56.1,52.0,29.50,WNW,292,5.8,-999.0,86,-99.99,,,0.00,Acu-Link.com,2013-07-06 09:04:00,
2013-07-06 02:19:00,56.3,52.2,29.51,WSW,247,4.2,-999.0,86,-99.99,,,0.00,Acu-Link.com,2013-07-06 09:19:00,
2013-07-06 02:35:00,56.3,52.2,29.51,ESE,112,2.2,-999.0,86,-99.99,,,0.00,Acu-Link.com,2013-07-06 09:35:00,
2013-07-06 02:50:00,56.1,52.3,29.51,West,270,6.3,-999.0,87,-99.99,,,0.00,Acu-Link.com,2013-07-06 09:50:00,
2013-07-06 03:05:00,55.9,52.1,29.51,SSE,157,3.7,-999.0,87,-99.99,,,0.00,Acu-Link.com,2013-07-06 10:05:00,
2013-07-06 03:21:00,55.8,52.0,29.51,ENE,67,3.2,-999.0,87,-99.99,,,0.00,Acu-Link.com,2013-07-06 10:21:00,
2013-07-06 03:36:00,55.4,51.9,29.51,NW,315,2.2,-999.0,88,-99.99,,,0.00,Acu-Link.com,2013-07-06 10:36:00,
2013-07-06 03:51:00,55.8,52.3,29.51,ENE,67,3.7,-999.0,88,-99.99,,,0.00,Acu-Link.com,2013-07-06 10:51:00,
2013-07-06 04:06:00,55.8,52.3,29.51,NNE,22,3.7,-999.0,88,-99.99,,,0.00,Acu-Link.com,2013-07-06 11:06:00,
2013-07-06 04:21:00,55.8,52.3,29.52,SSE,157,1.1,-999.0,88,-99.99,,,0.00,Acu-Link.com,2013-07-06 11:21:00,
2013-07-06 04:37:00,55.4,51.9,29.51,WNW,292,2.2,-999.0,88,-99.99,,,0.00,Acu-Link.com,2013-07-06 11:37:00,
2013-07-06 04:52:00,55.2,52.0,29.52,SW,225,2.7,-999.0,89,-99.99,,,0.00,Acu-Link.com,2013-07-06 11:52:00,
2013-07-06 05:07:00,55.4,52.2,29.52,NNE,22,5.8,-999.0,89,-99.99,,,0.00,Acu-Link.com,2013-07-06 12:07:00,
2013-07-06 05:22:00,55.6,52.4,29.53,East,90,2.7,-999.0,89,-99.99,,,0.00,Acu-Link.com,2013-07-06 12:22:00,
2013-07-06 05:38:00,55.6,52.4,29.53,WSW,247,4.2,-999.0,89,-99.99,,,0.00,Acu-Link.com,2013-07-06 12:38:00,
2013-07-06 05:53:00,55.6,52.4,29.53,East,90,3.2,-999.0,89,-99.99,,,0.00,Acu-Link.com,2013-07-06 12:53:00,
2013-07-06 06:08:00,55.6,52.4,29.53,West,270,3.7,-999.0,89,-99.99,,,0.00,Acu-Link.com,2013-07-06 13:08:00,
2013-07-06 06:23:00,55.8,52.6,29.53,West,270,3.7,-999.0,89,-99.99,,,0.00,Acu-Link.com,2013-07-06 13:23:00,
2013-07-06 06:39:00,56.1,52.6,29.53,East,90,2.7,-999.0,88,-99.99,,,0.00,Acu-Link.com,2013-07-06 13:39:00,
2013-07-06 06:54:00,56.5,53.0,29.54,SSW,202,3.2,-999.0,88,-99.99,,,0.00,Acu-Link.com,2013-07-06 13:54:00,
2013-07-06 07:09:00,57.7,53.2,29.54,West,270,3.7,-999.0,85,-99.99,,,0.00,Acu-Link.com,2013-07-06 14:09:00,
2013-07-06 07:24:00,58.5,53.7,29.55,West,270,3.7,-999.0,84,-99.99,,,0.00,Acu-Link.com,2013-07-06 14:24:00,
2013-07-06 07:40:00,59.5,53.7,29.55,NNE,22,3.2,-999.0,81,-99.99,,,0.00,Acu-Link.com,2013-07-06 14:40:00,
2013-07-06 07:55:00,61.3,54.0,29.54,NW,315,6.8,-999.0,77,-99.99,,,0.00,Acu-Link.com,2013-07-06 14:55:00,
2013-07-06 08:10:00,62.6,54.6,29.55,West,270,3.7,-999.0,75,-99.99,,,0.00,Acu-Link.com,2013-07-06 15:10:00,
2013-07-06 08:25:00,61.5,54.2,29.56,SW,225,5.3,-999.0,77,-99.99,,,0.00,Acu-Link.com,2013-07-06 15:25:00,
2013-07-06 08:41:00,62.4,54.7,29.56,ESE,112,3.7,-999.0,76,-99.99,,,0.00,Acu-Link.com,2013-07-06 15:41:00,
2013-07-06 08:56:00,63.9,55.1,29.56,SSE,157,4.2,-999.0,73,-99.99,,,0.00,Acu-Link.com,2013-07-06 15:56:00,
2013-07-06 09:11:00,64.2,54.6,29.56,West,270,2.7,-999.0,71,-99.99,,,0.00,Acu-Link.com,2013-07-06 16:11:00,
2013-07-06 09:26:00,65.5,55.8,29.57,NW,315,2.2,-999.0,71,-99.99,,,0.00,Acu-Link.com,2013-07-06 16:26:00,
2013-07-06 09:57:00,66.4,55.1,29.56,SE,135,3.7,-999.0,67,-99.99,,,0.00,Acu-Link.com,2013-07-06 16:57:00,
2013-07-06 10:27:00,68.0,56.2,29.56,North,0,3.7,-999.0,66,-99.99,,,0.00,Acu-Link.com,2013-07-06 17:27:00,
2013-07-06 11:59:00,73.0,56.9,29.55,NNE,22,4.2,-999.0,57,-99.99,,,0.00,Acu-Link.com,2013-07-06 18:59:00,
2013-07-06 12:14:00,74.7,57.4,29.55,West,270,3.2,-999.0,55,-99.99,,,0.00,Acu-Link.com,2013-07-06 19:14:00,
2013-07-06 12:29:00,73.9,57.2,29.55,SW,225,3.7,-999.0,56,-99.99,,,0.00,Acu-Link.com,2013-07-06 19:29:00,
2013-07-06 12:45:00,75.9,58.6,29.54,ESE,112,1.7,-999.0,55,-99.99,,,0.00,Acu-Link.com,2013-07-06 19:45:00,
2013-07-06 13:00:00,77.2,58.2,29.54,NW,315,2.7,-999.0,52,-99.99,,,0.00,Acu-Link.com,2013-07-06 20:00:00,
2013-07-06 13:30:00,77.7,57.6,29.54,North,0,3.2,-999.0,50,-99.99,,,0.00,Acu-Link.com,2013-07-06 20:30:00,
2013-07-06 13:46:00,77.9,58.3,29.53,North,0,4.7,-999.0,51,-99.99,,,0.00,Acu-Link.com,2013-07-06 20:46:00,
2013-07-06 14:01:00,79.3,58.5,29.52,SW,225,3.2,-999.0,49,-99.99,,,0.00,Acu-Link.com,2013-07-06 21:01:00,
2013-07-06 14:16:00,78.8,58.0,29.52,ESE,112,3.7,-999.0,49,-99.99,,,0.00,Acu-Link.com,2013-07-06 21:16:00,
2013-07-06 14:31:00,78.8,58.6,29.51,WSW,247,2.7,-999.0,50,-99.99,,,0.00,Acu-Link.com,2013-07-06 21:31:00,
2013-07-06 14:47:00,79.2,57.8,29.51,SSE,157,4.7,-999.0,48,-99.99,,,0.00,Acu-Link.com,2013-07-06 21:47:00,
2013-07-06 15:02:00,79.2,57.8,29.50,SSW,202,3.2,-999.0,48,-99.99,,,0.00,Acu-Link.com,2013-07-06 22:02:00,
2013-07-06 15:48:00,79.5,58.1,29.50,WSW,247,3.2,-999.0,48,-99.99,,,0.00,Acu-Link.com,2013-07-06 22:48:00,
2013-07-06 16:18:00,79.9,57.2,29.49,SW,225,4.2,-999.0,46,-99.99,,,0.00,Acu-Link.com,2013-07-06 23:18:00,
2013-07-06 16:49:00,78.6,56.7,29.48,ENE,67,2.7,-999.0,47,-99.99,,,0.00,Acu-Link.com,2013-07-06 23:49:00,
2013-07-06 17:19:00,80.8,56.8,29.47,WNW,292,3.7,-999.0,44,-99.99,,,0.00,Acu-Link.com,2013-07-07 00:19:00,
2013-07-06 17:50:00,82.8,57.3,29.47,WNW,292,6.3,-999.0,42,-99.99,,,0.00,Acu-Link.com,2013-07-07 00:50:00,
2013-07-06 18:20:00,82.0,57.3,29.47,ESE,112,4.7,-999.0,43,-99.99,,,0.00,Acu-Link.com,2013-07-07 01:20:00,
2013-07-06 18:36:00,80.1,56.8,29.47,SSW,202,3.2,-999.0,45,-99.99,,,0.00,Acu-Link.com,2013-07-07 01:36:00,
2013-07-06 19:06:00,75.7,60.3,29.46,East,90,2.7,-999.0,59,-99.99,,,0.00,Acu-Link.com,2013-07-07 02:06:00,
2013-07-06 19:22:00,74.1,55.3,29.47,WSW,247,3.7,-999.0,52,-99.99,,,0.00,Acu-Link.com,2013-07-07 02:22:00,
2013-07-06 19:37:00,70.9,55.4,29.47,East,90,1.7,-999.0,58,-99.99,,,0.00,Acu-Link.com,2013-07-07 02:37:00,
2013-07-06 20:08:00,66.9,53.9,29.48,SSE,157,2.2,-999.0,63,-99.99,,,0.00,Acu-Link.com,2013-07-07 03:08:00,
2013-07-06 20:23:00,64.9,53.7,29.48,East,90,1.7,-999.0,67,-99.99,,,0.00,Acu-Link.com,2013-07-07 03:23:00,
2013-07-06 20:38:00,63.9,53.1,29.48,East,90,2.2,-999.0,68,-99.99,,,0.00,Acu-Link.com,2013-07-07 03:38:00,
2013-07-06 20:54:00,62.8,53.6,29.48,WNW,292,3.2,-999.0,72,-99.99,,,0.01,Acu-Link.com,2013-07-07 03:54:00,
2013-07-06 21:09:00,62.2,53.1,29.49,NNE,22,2.7,-999.0,72,-99.99,,,0.01,Acu-Link.com,2013-07-07 04:09:00,
2013-07-06 21:24:00,61.5,53.1,29.49,ESE,112,1.7,-999.0,74,-99.99,,,0.01,Acu-Link.com,2013-07-07 04:24:00,
2013-07-06 21:40:00,61.2,52.8,29.49,WNW,292,2.7,-999.0,74,-99.99,,,0.01,Acu-Link.com,2013-07-07 04:40:00,
2013-07-06 21:55:00,61.0,53.4,29.50,NNW,337,2.2,-999.0,76,-99.99,,,0.01,Acu-Link.com,2013-07-07 04:55:00,
2013-07-06 22:10:00,60.8,53.5,29.51,WNW,292,2.7,-999.0,77,-99.99,,,0.01,Acu-Link.com,2013-07-07 05:10:00,
2013-07-06 22:25:00,60.8,53.5,29.51,West,270,2.2,-999.0,77,-99.99,,,0.01,Acu-Link.com,2013-07-07 05:25:00,
2013-07-06 22:41:00,59.7,53.2,29.52,SSE,157,1.7,-999.0,79,-99.99,,,0.01,Acu-Link.com,2013-07-07 05:41:00,
2013-07-06 22:56:00,59.2,53.4,29.52,WSW,247,1.7,-999.0,81,-99.99,,,0.01,Acu-Link.com,2013-07-07 05:56:00,
2013-07-06 23:11:00,59.0,53.5,29.51,NW,315,2.2,-999.0,82,-99.99,,,0.01,Acu-Link.com,2013-07-07 06:11:00,
2013-07-06 23:26:00,58.6,53.5,29.52,WNW,292,0.0,-999.0,83,-99.99,,,0.01,Acu-Link.com,2013-07-07 06:26:00,
2013-07-06 23:42:00,58.3,53.2,29.53,SSE,157,2.7,-999.0,83,-99.99,,,0.01,Acu-Link.com,2013-07-07 06:42:00,
2013-07-06 23:57:00,57.4,52.9,29.52,NNW,337,3.2,-999.0,85,-99.99,,,0.01,Acu-Link.com,2013-07-07 06:57:00,